Weather History for Ft Lauderdale, FL

Change the Weather History Date:

Wednesday, November 21, 2012

  Actual Average Record
Temperature  
Mean Temperature 69 °F 75 °F  
Max Temperature 78 °F 81 °F 88 °F (1972)
Min Temperature 59 °F 69 °F 38 °F (1914)
Degree Days  
Heating Degree Days 0 0  
Month to date heating degree days 2 0  
Since 1 July heating degree days 2 0  
Cooling Degree Days 4 10  
Month to date cooling degree days 152 236  
Year to date cooling degree days 4309 4430  
Growing Degree Days 19 (Base 50)    
Moisture  
Dew Point 56 °F    
Average Humidity 68    
Maximum Humidity 90    
Minimum Humidity 46    
Precipitation  
Precipitation 0.00 in 0.07 in 5.02 in (2013)
Month to date precipitation 0.49 2.44  
Year to date precipitation 59.78 58.92  
Snow  
Snow 0.00 in - - ()
Month to date snowfall 0.0  
Since 1 July snowfall 0.0  
Since 1 September snowfall 0.0  
Snow Depth 0.00 in    
Sea Level Pressure  
Sea Level Pressure 29.97 in    
Wind  
Wind Speed 12 mph (NNW)    
Max Wind Speed 18 mph    
Max Gust Speed 23 mph    
Visibility 10 miles    
Events      
T = Trace of Precipitation, MM = Missing Value Source: NWS Daily Summary

Daily Weather History Graph

Daily Weather History Graph

Search for Another Location

Airport:

Trip Planner

Search our weather history database for the weather conditions in past years. The results will help you decide how hot, cold, wet, or windy it might be!

Date:

Astronomy

Nov. 21, 2012 Rise Set
Actual Time 6:43 AM EST 5:29 PM EST
Civil Twilight 6:19 AM EST 5:53 PM EST
Nautical Twilight 5:50 AM EST 6:22 PM EST
Astronomical Twilight 5:23 AM EST 6:49 PM EST
Moon 1:12 PM EST (11/21) 12:36 AM EST (11/21)
Length of Visible Light 11h 34m
Length of Day
10h 45m
First Quarter, 61% of the Moon is Illuminated
Nov 21
First Quarter
Nov 28
Full
Dec 6
Last Quarter
Dec 13
New
Dec 20
First Quarter

Hourly Weather History & Observations

Time (EST) Temp. Dew Point Humidity Pressure Visibility Wind Dir Wind Speed Gust Speed Precip Events Conditions
12:53 AM 64.9 °F 59.0 °F 81% 29.96 in 10.0 mi NNW 8.1 mph - N/A   Scattered Clouds
1:53 AM 64.0 °F 59.0 °F 84% 29.95 in 10.0 mi NNW 11.5 mph - N/A   Partly Cloudy
2:53 AM 62.1 °F 57.9 °F 86% 29.94 in 10.0 mi NNW 11.5 mph - N/A   Scattered Clouds
3:53 AM 62.1 °F 57.9 °F 86% 29.95 in 10.0 mi NNW 9.2 mph - N/A   Scattered Clouds
4:53 AM 61.0 °F 57.9 °F 90% 29.95 in 10.0 mi NW 6.9 mph - N/A   Scattered Clouds
5:53 AM 60.1 °F 57.0 °F 90% 29.96 in 10.0 mi WNW 6.9 mph - N/A   Partly Cloudy
6:53 AM 60.1 °F 57.0 °F 90% 29.98 in 10.0 mi NW 6.9 mph - N/A   Partly Cloudy
7:53 AM 62.1 °F 57.9 °F 86% 29.98 in 10.0 mi NW 10.4 mph - N/A   Partly Cloudy
8:53 AM 66.0 °F 57.9 °F 75% 30.00 in 10.0 mi NW 13.8 mph - N/A   Partly Cloudy
9:53 AM 70.0 °F 59.0 °F 68% 30.00 in 10.0 mi NW 10.4 mph - N/A   Partly Cloudy
10:53 AM 73.0 °F 59.0 °F 61% 29.99 in 10.0 mi NNW 13.8 mph - N/A   Partly Cloudy
11:53 AM 75.9 °F 59.0 °F 56% 29.97 in 10.0 mi NNW 13.8 mph - N/A   Partly Cloudy
12:53 PM 78.1 °F 59.0 °F 52% 29.94 in 10.0 mi NNW 17.3 mph 20.7 mph N/A   Partly Cloudy
1:53 PM 78.1 °F 57.0 °F 48% 29.92 in 10.0 mi NW 15.0 mph - N/A   Partly Cloudy
2:53 PM 75.9 °F 57.0 °F 52% 29.92 in 10.0 mi WNW 12.7 mph - N/A   Scattered Clouds
3:53 PM 75.0 °F 53.1 °F 46% 29.93 in 10.0 mi NW 13.8 mph - N/A   Partly Cloudy
4:53 PM 73.0 °F 52.0 °F 48% 29.94 in 10.0 mi NNW 10.4 mph 20.7 mph N/A   Clear
5:53 PM 70.0 °F 51.1 °F 51% 29.96 in 10.0 mi NNW 12.7 mph - N/A   Clear
6:53 PM 68.0 °F 52.0 °F 56% 29.97 in 10.0 mi North 9.2 mph - N/A   Clear
7:53 PM 66.0 °F 53.1 °F 63% 29.99 in 10.0 mi North 11.5 mph - N/A   Clear
8:53 PM 64.0 °F 53.1 °F 67% 30.01 in 10.0 mi North 17.3 mph - N/A   Clear
9:53 PM 63.0 °F 52.0 °F 67% 30.02 in 10.0 mi NNW 13.8 mph - N/A   Clear
10:53 PM 62.1 °F 52.0 °F 70% 30.03 in 10.0 mi NNW 12.7 mph - N/A   Clear
11:53 PM 61.0 °F 53.1 °F 75% 30.02 in 10.0 mi NNW 11.5 mph - N/A   Clear